LILACSAT-2

Last updated on Mon Sep 21 2026 00:03:14 GMT+0000 (Coordinated Universal Time)

1 40908U 15049K 26263.63605877 .00013696 00000+0 20987-3 0 9994 2 40908 97.4558 304.2636 0004631 256.8827 103.1910 15.54447124610567
UTC large
Height (km)
Speed (km/s)
/
Latitude / Longitude
Inclination (degrees)
Orbital Period (minutes)
Azimuth
Elevation
Range (km)
Doppler Factor

Next 0 passes for location: London (51.5072 / 0.1276)

No passes found over London.
LILACSAT-2